sat.trackr.live / text

‹ back to catalog

GLOBALSTAR M084

NORAD 38040 · 2011-080A

PAYLOAD ACTIVE UNKNOWN

§ Identity

Operator
Country
GLOB
Launch date
2011-12-28
Launch site
TYMSC
Launch vehicle
Mass (kg)
RCS (m²)
4.60

Purposes: comms

External: N2YO · Heavens-Above · Gunter

§ Orbital elements

Epoch: 2026-09-13T00:38:29.383872Z

Period
114.08 min
Inclination
51.9995°
Eccentricity
0.0000514
Mean motion
12.62264142 rev/d
Perigee alt
1,413.2 km
Apogee alt
1,414.0 km
Semi-major
7,791.8 km
B*
1.2425e-4
RAAN
109.8672°
Arg perigee
68.5827°
Mean anomaly
95.2482°
Rev number
67,985

§ Raw data

GLOBALSTAR M0841 38040U 11080A   26256.02672898 -.00000082  00000+0  12425-3 0  99952 38040  51.9995 109.8672 0000514  68.5827  95.2482 12.62264142679859

JSON: /api/v1/satellites/38040 · /tle

For live sub-satellite position, see the globe view (requires WebGL).

§ Visibility from observer

Set your observer location to see the next 7 days of passes ≥ 10°. The values pass through the URL so the page stays shareable.

No JS? Fill the form by hand. The geolocation button needs JavaScript.